Vertical_Velocity
-1 1 -2 1 -2 -2 -1 -1 -1 -2 -2 1 1 0 -0 -0 -0 -1 -1 1 0 1 0 -1 -2 -1 1 -1 -2 -0 -2 -2 -1
-1 0 -2 -2 -1 -1 -2 -0 -0 -0 -2 1 -2 0 -0 -0 1 -0 -1 0 0 1 0 -1 -1 -1 0 -2 -2 -0 -0 -1 -1
-2 0 -2 -3 -1 -1 -1 -0 -1 -1 -0 1 0 -0 2 1 -1 0 1 1 -1 1 0 -0 -1 -1 -1 -2 -1 -1 -2 -0 -2
0 0 -1 -1 -1 -1 -0 -1 -0 -1 2 0 3 1 0 2 1 0 1 0 -1 -1 -1 -0 -2 -1 -1 -1 -1 -1 -2 -1 1
0 1 2 2 2 1 1 1 1 0 1 -1 -2 1 -0 -2 -1 -1 -2 -0 1 -1 -1 -1 -2 -1 -1 -1 1 1 -0 2 -0
0 -0 -1 -2 -1 -1 -2 -2 -2 2 1 -1 1 -1 -1 1 0 1 1 0 -2 -2 -2 0 -0 0 -1 -1 -1 -1 0 -1 -2
2 -0 1 -1 1 -1 -0 -1 -2 -1 -0 1 -1 0 -1 -2 -0 -0 -0 -0 -1 -1 -1 -1 -2 -1 -2 -1 0 -2 -2 -0 -3
1 -2 -0 -0 1 1 -0 0 -0 -2 -1 -1 -1 -1 -1 -0 -1 -0 -1 -1 -0 -1 -2 -1 -0 -1 -1 -2 -4 -2 -2 0 0
-1 1 -1 -0 -0 0 1 1 2 2 1 1 -1 -1 -0 -0 -1 -1 1 1 -1 -1 -1 -1 -1 -2 -2 -3 -2 -3 -0 -0 -1
1 1 0 -1 -1 -1 -1 -1 -2 -2 -0 -0 1 1 1 0 0 1 0 -1 -2 -1 -0 -0 -1 -1 -0 2 -1 -2 -2 -3 -3
-1 -1 -1 -1 -1 -0 1 1 1 0 -1 -2 -1 -0 -0 2 2 1 2 2 3 2 -1 -1 -1 -1 -0 -0 1 -1 1 -4 -0
-1 0 0 1 1 -0 -0 1 1 1 2 2 -0 -1 -2 -1 -1 -2 -3 -1 0 3 3 6 3 1 1 -2 -1 0 0 -0 -4
-1 -1 0 0 -1 0 -1 0 1 1 0 1 2 -1 -1 -0 -0 1 2 -2 -3 -1 1 -0 4 -2 6 4 11 0 3 -1 -6
2 2 0 -2 0 -1 -1 -2 1 0 -1 -1 -1 2 2 0 -1 1 -0 1 -0 -3 -3 -2 -1 0 1 1 7 3 7 0 0
1 3 3 2 -0 -3 -2 -3 -2 -2 -2 -2 -2 -1 -1 -0 1 -2 -0 1 1 0 -2 -9 -2 -0 2 -3 -0 4 1 5 8
-0 -1 3 2 -0 4 3 4 -0 -1 2 3 4 1 -3 3 -3 -3 -1 -1 -2 0 -1 1 1 0 -3 -4 -1 -4 -1 -1 -1
2 -0 3 1 2 1 -0 1 2 3 2 1 0 -2 -1 -1 1 -2 -1 -0 1 2 1 5 1 1 0 0 -5 -4 -0 3 3
1 -3 3 3 -2 2 2 4 2 2 -0 -4 4 -0 3 4 -3 -4 -2 9 -4 -5 -0 1 4 1 1 -1 2 -2 1 -0 -1
-4 -1 5 3 3 10 1 2 -2 -2 3 9 -12 -9 -4 -0 -4 1 3 4 -1 1 -8 -1 1 2 -6 1 -1 2 -5 -4 -2
-3 7 7 8 5 9 -8 -3 5 -0 0 7 4 2 0 12 17 2 -3 -2 -2 1 -5 -1 1 0 -1 -4 3 -2 -3 -1 -5
Height
1554 1556 1559 1562 1564 1567 1569 1570 1572 1573 1574 1575 1575 1576 1576 1577 1577 1577 1576 1576 1576 1576 1575 1574 1573 1572 1571 1570 1570 1569 1568 1567 1566
1555 1558 1561 1564 1566 1569 1571 1572 1574 1575 1576 1577 1578 1579 1579 1579 1579 1579 1578 1578 1578 1578 1577 1576 1576 1575 1574 1573 1572 1572 1571 1570 1569
1557 1560 1563 1566 1568 1571 1573 1574 1576 1577 1578 1579 1580 1581 1581 1581 1581 1581 1581 1581 1581 1580 1579 1579 1578 1577 1576 1575 1574 1573 1573 1572 1571
1558 1561 1564 1567 1570 1572 1574 1576 1578 1579 1580 1581 1582 1583 1583 1584 1583 1584 1583 1583 1583 1582 1582 1581 1580 1579 1578 1577 1576 1575 1575 1574 1573
1560 1563 1566 1568 1571 1573 1576 1578 1580 1581 1582 1583 1584 1584 1585 1585 1585 1585 1585 1585 1585 1584 1584 1583 1582 1582 1581 1580 1579 1578 1577 1576 1575
1562 1564 1567 1570 1572 1575 1576 1579 1581 1582 1583 1584 1585 1586 1586 1587 1587 1587 1587 1587 1587 1586 1586 1585 1584 1584 1583 1582 1581 1580 1579 1578 1578
1562 1565 1568 1571 1573 1575 1577 1579 1581 1583 1585 1585 1586 1587 1587 1588 1588 1588 1588 1588 1588 1588 1587 1587 1586 1585 1584 1583 1582 1582 1581 1580 1579
1562 1565 1568 1571 1574 1576 1578 1580 1581 1583 1584 1586 1587 1588 1588 1589 1589 1589 1589 1590 1589 1589 1589 1588 1587 1586 1586 1585 1584 1583 1582 1582 1581
1562 1565 1569 1572 1574 1576 1579 1580 1582 1583 1584 1586 1587 1588 1588 1589 1589 1590 1590 1590 1590 1589 1589 1588 1588 1587 1586 1586 1585 1584 1584 1583 1583
1563 1566 1569 1572 1574 1576 1578 1580 1581 1583 1584 1585 1586 1587 1587 1588 1588 1589 1590 1590 1590 1589 1589 1589 1588 1587 1587 1586 1585 1585 1584 1584 1584
1564 1566 1569 1571 1573 1576 1578 1579 1580 1582 1583 1584 1586 1586 1587 1587 1588 1588 1589 1589 1589 1589 1589 1589 1588 1587 1586 1586 1585 1585 1584 1584 1585
1563 1566 1568 1570 1572 1574 1577 1578 1580 1581 1582 1583 1584 1585 1586 1586 1587 1587 1588 1589 1589 1589 1589 1588 1587 1587 1586 1585 1585 1584 1584 1583 1584
1562 1565 1567 1569 1570 1573 1575 1577 1579 1579 1581 1582 1582 1582 1583 1584 1585 1586 1586 1587 1588 1588 1589 1588 1587 1587 1587 1586 1585 1583 1583 1583 1583
1561 1563 1565 1567 1569 1571 1573 1576 1577 1578 1579 1580 1581 1581 1581 1582 1583 1584 1584 1585 1585 1585 1587 1587 1587 1587 1586 1585 1584 1582 1581 1581 1581
1559 1561 1563 1564 1566 1568 1571 1573 1575 1576 1577 1578 1578 1578 1579 1580 1580 1581 1582 1582 1582 1583 1584 1585 1585 1585 1585 1584 1583 1581 1580 1579 1578
1556 1559 1562 1563 1564 1566 1568 1570 1572 1573 1575 1576 1576 1575 1576 1575 1576 1577 1578 1579 1579 1580 1580 1580 1581 1581 1582 1581 1580 1580 1578 1578 1577
1553 1556 1558 1560 1562 1564 1566 1569 1570 1572 1574 1575 1575 1573 1574 1573 1573 1574 1575 1576 1576 1576 1576 1577 1577 1578 1579 1578 1577 1576 1575 1575 1574
1552 1554 1556 1557 1559 1560 1562 1566 1568 1570 1572 1573 1574 1572 1572 1571 1570 1571 1571 1572 1572 1573 1573 1573 1574 1574 1575 1574 1573 1572 1571 1571 1570
1549 1551 1553 1554 1554 1555 1559 1562 1565 1568 1568 1568 1568 1569 1569 1570 1569 1567 1567 1568 1568 1568 1569 1570 1570 1570 1570 1570 1569 1567 1567 1567 1568
1544 1547 1549 1550 1553 1556 1557 1557 1561 1563 1562 1562 1563 1561 1564 1564 1564 1561 1563 1563 1564 1565 1565 1565 1565 1565 1566 1566 1564 1564 1564 1563 1563